Regional Weather Roundup
Issued by NWS Charleston, SC

Current Version | Previous Version | Text Only | Print | Product List | Glossary On
Versions: 1 2 3 4 5 6 7 8 9 10 11 12 13 14 15 16 17 18 19 20 21 22 23 24 25 26 27 28 29 30 31 32 33 34 35 36 37 38 39 40 41 42 43 44 45 46 47 48 49 50
000
ASUS42 KCHS 161727
RWRCHS

REGIONAL WEATHER ROUNDUP
NATIONAL WEATHER SERVICE CHARLESTON SC
100 PM EDT WED AUG 16 2017

NOTE: "FAIR" INDICATES FEW OR NO CLOUDS BELOW 12,000 FEET WITH NO
SIGNIFICANT WEATHER AND/OR OBSTRUCTIONS TO VISIBILITY.

NOT ALL STATIONS ARE QUALITY CONTROLLED. USE DATA WITH CAUTION...
ESPECIALLY DEWPOINT OBSERVATIONS.

SCZ027-030-031-034>040-042>050-161800-
...SOUTHEAST SOUTH CAROLINA...

CITY           SKY/WX    TMP DP  RH WIND       PRES   REMARKS
N CHARLESTON   MOSUNNY   93  74  53 NW8       30.01F HX 103
WATERFRONT PRK   N/A    N/A N/A N/A W5        29.86F
JOHNS ISLAND   FAIR      95  77  55 W8G15     30.01S HX 109
PINOPOLIS        N/A     88  79  74 CALM      29.94F HX 102
MONCKS CORNER  FAIR      90  73  58 CALM      30.00F HX  98
SUMMERVILLE    FAIR      91  75  59 W6        30.02S HX 102
BEAUFORT MCAS  MOSUNNY   93  78  61 W10G18    30.02F HX 108
BEAUFORT ARPT  FAIR      93  77  59 W5        30.01F HX 107
HILTON HEAD IS MOSUNNY   91  81  70 SE9       30.03F HX 110
WALTERBORO     MOSUNNY   91  73  55 W9        30.02F HX 100
ALLENDALE      NOT AVBL

...SOUTHERN MIDLANDS AND PEE DEE...

CITY           SKY/WX    TMP DP  RH WIND       PRES   REMARKS
GEORGETOWN     PTSUNNY   88  77  70 CALM      30.01S HX 100
KINGSTREE      PTSUNNY   88  75  66 N3        30.00F HX  97
ORANGEBURG     MOSUNNY   92  74  55 W5        30.02F HX 101
BARNWELL       FAIR      97  75  49 VRB7      30.02F HX 109
AIKEN          FAIR      90  73  58 W5        30.07F HX  98
MANNING        FAIR      91  77  62 CALM      30.00F HX 105
COLUMBIA       PTSUNNY   92  74  55 CALM      30.01F HX 101
SUMTER         MOSUNNY   92  73  53 W5        29.99F HX 101
FLORENCE       PTSUNNY   89  74  60 N5        30.01F HX  98
MYRTLE BEACH   MOSUNNY   90  79  70 E6        30.01F HX 105
N MYRTLE BEACH MOSUNNY   91  75  59 VRB3      29.99F HX 101

$$

GAZ063-065-086>088-099>101-113>116-118-119-134>141-150-161800-
...SOUTHEAST GEORGIA...

CITY           SKY/WX    TMP DP  RH WIND       PRES   REMARKS
SAVANNAH ARPT  MOSUNNY   94  76  55 W8        30.03F HX 106
HUNTER AAF     MOSUNNY   93  77  59 W6        30.01F HX 106
FORT STEWART   MOSUNNY   92  74  55 W9        30.02F HX 101
STATESBORO     MOSUNNY   92  71  50 W7        30.04F HX  99
SYLVANIA       MOSUNNY   93  79  63 NW6       30.04F HX 109
CLAXTON        FAIR      93  76  57 CALM      30.04F HX 106

...CSRA...CENTRAL AND FAR SOUTHEAST GEORGIA...

CITY           SKY/WX    TMP DP  RH WIND       PRES   REMARKS
THOMSON        MOSUNNY   91  73  54 NW5       30.10S HX  99
AUGUSTA-BUSH   SUNNY     96  73  47 W7        30.02F HX 105
AUGUSTA-DANIEL SUNNY     94  69  44 NW8       30.05F HX  99
SWAINSBORO     PTSUNNY   91  77  62 W6        30.06S HX 105
VIDALIA        SUNNY     91  77  62 W7        30.06S HX 105
EASTMAN        PTSUNNY   91  63  38 CALM      30.09F HX  91
HAZLEHURST     FAIR      93  56  29 NW7       30.05F HX  91
ALMA           SUNNY     91  74  57 W8        30.07F HX 100
WAYCROSS       MOSUNNY   93  71  48 NW8       30.06F HX  99
JESUP          FAIR      93  72  49 NW7       30.05F HX 100
BAXLEY         FAIR      90  72  55 NW6       30.06F HX  96
BRUNSWICK      SUNNY     91  72  52 W5        30.05F HX  98
SAINT SIMONS   SUNNY     92  74  55 W9        30.05F HX 101

$$

SCZ027-028-034-036>038-045-046-048>050-GAZ119-141-161800-
...LAKE AND SUPPLEMENTAL COASTAL OBSERVATIONS...

STATION/POSITION TIME  TEMP    WIND        PRES    WAVE   SWELL
                       AIR SEA DIR/SP/G            HT/PER HT/PER/DIR
                 (UTC) (F)     (DEG/KT/KT) (MB)    (FT/S) (FT/S/D)
WINYAH BAY       1645   87     140/  6     1016.0S
LAKE MURRAY      1630   87     200/  6/  7 1015.6F
ACE BASIN NERRS  1645   92     230/  2     1016.0F
FORT PULASKI     1700   90 85  280/  2/  3 1017.2
SAPELO ISLAND    1700   93        CALM     1017.0

$$

ANZ835-935-AMZ111-154-330-350-352-354-370-450-454-472-161800-
...C-MAN AND BUOY OBSERVATIONS...

STATION/POSITION TIME  TEMP    WIND        PRES    WAVE   SWELL
                       AIR SEA DIR/SP/G            HT/PER HT/PER/DIR
                 (UTC) (F)     (DEG/KT/KT) (MB)    (FT/S) (FT/S/D)
BUOY 41004       1710   83 84  240/  6/  8 1016.1
BUOY 41008       1650   84 85  210/  8/ 10 1017.2F   1/ 7   2/ 90/ 7
FOLLY BEACH CMAN 1700   89     210/  9/ 10 1016.9F
CAPERS NEARSHORE 1708   86 86  190/  6/  8 1016.0F
FRIPP NEARSHORE  1708   85     220/ 10/ 12 1016.2F


STATION/POSITION TIME  TEMP    WIND        PRES    WAVE   SWELL
                       AIR SEA DIR/SP/G            HT/PER HT/PER/DIR
                 (UTC) (F)     (DEG/KT/KT) (MB)    (FT/S) (FT/S/D)
5E ST. MARYS GA  1700      85                N/A     1/ 9
FRYING PAN BUOY  1710   82 83  360/  4/  6 1015.7
BUOY 41025       1650   80 83   20/  8/ 10 1015.3R   2/ 8   2/110/ 8
CAPE LOOKOUT NC  1700   82      80/  6/  7 1015.2R
BUOY 41002       1650   84 84  240/ 12/ 14 1016.8S   5/ 6   3/220/ 6
BUOY 41010       1710   85 86  280/  4/  6 1018.5
ST AUGUSTINE FL  1700   83 83  110/  6/  7 1018.6F


$$




USA.gov is the U.S. government's official web portal to all federal, state and local government web resources and services.